Miscellaneous Local Product
Issued by NWS North Platte, NE

Home | Current Version | Previous Version | Text Only | Print | Product List | Glossary On
Versions: 1 2 3 4 5 6 7 8 9 10 11 12 13 14 15 16 17 18 19 20 21 22 23 24 25 26 27 28 29 30 31 32 33 34 35 36 37 38 39 40 41 42 43 44 45 46 47 48 49 50
000
AXUS43 KLBF 210510
MISLBF


WESTERN AND NORTH CENTRAL NEBRASKA HOURLY WEATHER ROUNDUP
NATIONAL WEATHER SERVICE NORTH PLATTE NE
1100 PM CST SAT JAN 20 2018

NOTE: "FAIR" INDICATES FEW OR NO CLOUDS BELOW 12,000 FEET WITH NO
SIGNIFICANT WEATHER AND/OR OBSTRUCTIONS TO VISIBILITY.

NOTE: STATIONS NOT REPORTING VARIABLES SUCH AS SKY/WEATHER OR
PRESSURE ARE PROVIDED BY RAWS AND APRS NETWORKS AND ARE NOT UNDER
NATIONAL WEATHER SERVICE QUALITY CONTROL.

...OBSERVATIONS IN AND NEAR THE EASTERN PANHANDLE OF NEBRASKA...

CITY           SKY/WX    TMP DP  RH WIND       PRES   REMARKS
PINE RIDGE     LGT SNOW  31  31 100 NE5       29.93F FOG     WCI  26
GORDON         CLOUDY    32  30  94 N13       29.90S WCI  22
CHADRON        LGT SNOW  31  30  96 NE8       29.94R VSB 3/4 WCI  23
ALLIANCE       CLOUDY    30  30 100 NE13      29.88R WCI  20
SIDNEY         CLOUDY    31  29  92 NE13      29.84S WCI  21
CRESCENT LAKE    N/A     50  31  49 NE12        N/A
$$

...OBSERVATIONS IN NORTHERN NEBRASKA AND FAR SOUTHERN SOUTH DAKOTA...

CITY           SKY/WX    TMP DP  RH WIND       PRES   REMARKS
WINNER         CLOUDY    36  34  92 N3        29.95S
VALENTINE      CLOUDY    37  33  85 N12       29.92S WCI  29
AINSWORTH      CLOUDY    33  33 100 N7        29.91S WCI  26
O`NEILL        CLOUDY    32  32 100 N8        29.90S WCI  25
THEDFORD       CLOUDY    34  33  96 N6        29.90R WCI  29
BROKEN BOW     CLOUDY    34  28  79 N13       29.85S WCI  25
ORD            CLOUDY    33  29  85 N13       29.86S WCI  24
ALBION         CLOUDY    30  28  91 NW5       29.87S WCI  25
VALENTINE NWR    N/A     34  33  96 N7G16       N/A  WCI  28
HALSEY           N/A     50  31  48 N5          N/A
BUTTE            N/A     34  31  90 N5          N/A  WCI  30
CHAMBERS         N/A     32  31  97 NW3         N/A
EWING            N/A     32  29  90 NE3         N/A
$$

...OBSERVATIONS IN SOUTHWEST NEBRASKA AND FAR NORTHEAST COLORADO...

CITY           SKY/WX    TMP DP  RH WIND       PRES   REMARKS
WRAY           CLOUDY    32  30  93 N17       29.81F WCI  21
HOLYOKE        CLOUDY    34  30  86 N14       29.83F WCI  24
IMPERIAL       CLOUDY    31  29  92 N12       29.83F WCI  22
OGALLALA       CLOUDY    33  31  92 NE8       29.86S WCI  26
NORTH PLATTE   CLOUDY    33  28  81 N15       29.85R WCI  23
MCCOOK         CLOUDY    32  28  85 N14       29.80F WCI  22
LEXINGTON      CLOUDY    34  30  84 NE12      29.83S WCI  25
STAPLETON        N/A     31  29  92 CALM        N/A
GOTHENBURG       N/A     33  28  81 N8          N/A  WCI  26
CALLAWAY         N/A     31  28  88 NE14        N/A  WCI  21
$$

...OBSERVATIONS IN CENTRAL LINCOLN COUNTY AREA...

CITY           SKY/WX    TMP DP  RH WIND       PRES   REMARKS
N.P. AIRPORT   CLOUDY    33  28  81 N15       29.85R WCI  23
N.P. DOWNTOWN    N/A     32  29  88 NE8         N/A  WCI  25
N.P. SOUTHEAST   N/A     32  28  86 N5          N/A  WCI  27
N.P. HILLCREST   N/A     33  30  90 NE20G26     N/A  WCI  21
$$

...SOME OBSERVATIONS FROM AROUND THE REGION...

CITY           SKY/WX    TMP DP  RH WIND       PRES   REMARKS
DENVER         CLOUDY    29  26  89 E6        29.82R WCI  23
BERTHOUD PASS  MOCLDY    18   7  62 S23G35    29.74F WCI   0
GRAND JUNCTION CLOUDY    34  34 100 CALM      29.71F
LARAMIE        LGT SNOW  23  22  96 NW3       29.71R FOG
CHEYENNE       FOG       25  25 100 E7        29.81R VSB 1/4 WCI  17
CASPER         SNOW      22  22 100 NE9       29.90R VSB 1/2 WCI  12
BISMARCK       MOCLDY    28  23  81 CALM      29.96R
RAPID CITY     LGT SNOW  30  28  92 N7        29.98S FOG     WCI  23
PIERRE         LGT RAIN  37  32  82 N6        29.98R WCI  32
SIOUX FALLS    CLOUDY    33  30  88 N3        29.94R
OMAHA          CLOUDY    37  34  89 N6        29.87S WCI  32
GRAND ISLAND   CLOUDY    35  32  88 N12       29.84S WCI  27
SCOTTSBLUFF    CLOUDY    32  30  92 NE12      29.88S WCI  23
KANSAS CITY    MOCLDY    44  42  93 E8        29.84S
HILL CITY      CLOUDY    35  31  85 N13       29.76F WCI  26
WICHITA        CLOUDY    45  40  82 SE7       29.74F
DODGE CITY     CLOUDY    31  19  61 NE5       29.68F WCI  26
OKLAHOMA CITY  CLEAR     55  51  86 S15       29.79S
DALLAS         CLOUDY    63  56  78 S21G33    29.91R
AMARILLO       CLOUDY    45  13  27 SW13      29.76S
$$




USA.gov is the U.S. government's official web portal to all federal, state and local government web resources and services.